Regional Weather Roundup
Issued by NWS

Home | Current Version | Previous Version | Graphics & Text | Print | Product List | Glossary On
Versions: 1 2 3 4 5 6 7 8 9 10 11 12 13 14 15 16 17 18 19 20 21 22 23 24 25 26 27 28 29 30 31 32 33 34 35 36 37 38 39 40 41 42 43 44 45 46 47 48 49 50
000
ASUS43 KDTX 111901
RWRMI
MICHIGAN HOURLY REGIONAL WEATHER ROUNDUP
NATIONAL WEATHER SERVICE DETROIT/PONTIAC MI
200 PM EST MON DEC 11 2017

NOTE: "FAIR" INDICATES FEW OR NO CLOUDS BELOW 12,000 FEET WITH NO
SIGNIFICANT WEATHER AND/OR OBSTRUCTION TO VISIBILITY.

MIZ047>049-052>055-059>063-066>070-074>076-081>083-112000-
SOUTHEAST LOWER MICHIGAN

CITY           SKY/WX    TMP DP  RH WIND       PRES   REMARKS
ADRIAN         CLOUDY    29  24  82 S9        29.86F WCI  20
ANN ARBOR      CLOUDY    28  25  88 SE7       29.85F WCI  21
BAD AXE        FLURRIES  21  14  74 SE7       29.87F WCI  12
CARO           CLOUDY    22  17  82 SE10      29.84F WCI  11
DETROIT CITY   CLOUDY    27  25  92 SE5       29.89F FOG     WCI  22
DETROIT        CLOUDY    29  25  85 S7        29.88F WCI  22
FLINT          CLOUDY    26  23  88 S10       29.84F FOG     WCI  16
GROSSE ILE     CLOUDY    29  25  86 S10       29.88F WCI  20
HILLSDALE      CLOUDY    30  23  74 S9G16     29.80F WCI  22
HOWELL         CLOUDY    27  26  96 SE9       29.82F FOG     WCI  18

CITY           SKY/WX    TMP DP  RH WIND       PRES   REMARKS
JACKSON        CLOUDY    29  22  75 S9        29.82F WCI  20
LAMBERTVILLE   CLOUDY    30  25  81 S7        29.87F WCI  23
LANSING        CLOUDY    28  25  88 S9        29.82F WCI  19
LAPEER         CLOUDY    22  18  82 SE5       29.86F WCI  16
MASON          CLOUDY    29  24  80 S5        29.82F WCI  24
MT. CLEMENS    LGT SNOW  26  25  98 S7        29.87F FOG     WCI  18
PONTIAC        FRZ DRZL  23  22  96 SE8       29.84F FOG     WCI  14
PORT HOPE        N/A     22  14  71 SE8       29.85F WCI  12
PORT HURON     FLURRIES  23  18  80 SE5       29.90F WCI  17
TRI CITIES     FLURRIES  23  20  88 SE10      29.83F WCI  12
MIDLAND        FLURRIES  23  19  83 E6        29.83F WCI  15
TROY           MIX PCPN  25  23  91 CALM      29.89F
SAGINAW HB     FLURRIES  23  19  86 SE8       29.84F WCI  14
$$
MIZ043>046-050>051-056>058-064>065-071>073-077>080-112000-
SOUTHWEST LOWER MICHIGAN

CITY           SKY/WX    TMP DP  RH WIND       PRES   REMARKS
BATTLE CREEK   CLOUDY    30  23  75 S9        29.80F WCI  22
BENTON HARBOR  CLOUDY    32  22  66 SE10      29.76F WCI  24
BIG RAPIDS     CLOUDY    23  21  93 SE5       29.76F FOG     WCI  17
COLDWATER      CLOUDY    32  24  71 S10       29.80F WCI  23
HOLLAND        CLOUDY    31  23  72 S8        29.78F WCI  23
GRAND RAPIDS   CLOUDY    29  25  85 S13       29.78F WCI  19
IONIA          CLOUDY    29  25  85 S12       29.78F WCI  20
KALAMAZOO      CLOUDY    31  23  72 S15       29.79F WCI  20
LUDINGTON      LGT SNOW  26  24  93 SE6       29.75F WCI  19
MARSHALL       CLOUDY    29  22  74 S10G16    29.80F WCI  20
MOUNT PLEASANT CLOUDY    23  19  84 SE7       29.80F WCI  14
MUSKEGON       CLOUDY    30  24  78 SE10      29.76F WCI  21
SOUTH HAVEN    CLOUDY    33  23  67 S7        29.77F WCI  26
$$
MIZ016>042-112000-
NORTHERN LOWER MICHIGAN

CITY           SKY/WX    TMP DP  RH WIND       PRES   REMARKS
ALPENA         LGT SNOW  20  16  84 S9        29.84F VSB 1   WCI   9
BEAVER ISLAND  LGT SNOW  26  24  91 SE8       29.75F VSB 1   WCI  18
BELLAIRE       LGT SNOW  23  20  90 S5        29.79F WCI  16
CADILLAC       LGT SNOW  19  17  93 SE6       29.73F WCI  11
CHARLEVOIX     LGT SNOW  22  18  85 SE9       29.79F WCI  12
FRANKFORT      CLOUDY    25  22  89 SE9       29.75F WCI  16
GAYLORD        LGT SNOW  18  13  80 S12       29.74F WCI   5
GRAYLING       LGT SNOW  19  14  81 SE9       29.78F WCI   9
HARBOR SPRINGS LGT SNOW  21  18  88 E5        29.78F WCI  14
HOUGHTON LAKE  FLURRIES  20  15  81 VRB7      29.78F WCI  11
MANISTEE       MIX PCPN  24  22  91 SE6       29.75F WCI  17
OSCODA         LGT SNOW  22  17  79 S7        29.85F WCI  14
PELLSTON       LGT SNOW  20  17  88 SE10      29.79F FOG     WCI   9
ROGERS CITY    LGT SNOW  20  15  80 S9        29.84F WCI   9
TRAVERSE CITY  LGT SNOW  23  17  78 SE6G17    29.76F WCI  16
$$
MIZ007>008-015-112000-
EASTERN UPPER MICHIGAN

CITY           SKY/WX    TMP DP  RH WIND       PRES   REMARKS
KINROSS        LGT SNOW  18  15  88 E12       29.78F VSB 1   WCI   5
MACKINAC ISLAN LGT SNOW  22  17  81 S13G20    29.77F WCI  10
NEWBERRY       LGT SNOW  19  18  97 NE3       29.74F VSB 1
S. S. MARIE    LGT SNOW  15  10  80 E10       29.79F WCI   2
MUNISING         N/A     23  20  88 S3        29.73F
$$
MIZ004>006-011>014-085-112000-
CENTRAL UPPER MICHIGAN

CITY           SKY/WX    TMP DP  RH WIND       PRES   REMARKS
MANISTIQUE     LGT SNOW  22  17  82 E3        29.73F
ESCANABA       LGT SNOW  27  22  81 SW6       29.73F WCI  20
MENOMINEE      CLOUDY    26  24  92 W5        29.74F FOG     WCI  20
SAWYER-GWINN   FLURRIES  21  18  86 SW9       29.69F WCI  11
$$
MIZ001>003-009>011-084-112000-
WESTERN UPPER MICHIGAN

CITY           SKY/WX    TMP DP  RH WIND       PRES   REMARKS
IRON MOUNTAIN  FLURRIES  22  17  81 W5        29.69F WCI  16
HOUGHTON       LGT SNOW  22  16  78 SW5       29.67F WCI  16
COPPER HARBOR    N/A     23  18  81 VRB3      29.68F
IRONWOOD       FLURRIES  24  22  91 W13       29.74S WCI  12
$$

ABBREVIATIONS USED IN REMARKS
   TC - TEMPERATURE IN CELSIUS
  WCI - WIND CHILL INDEX
   HX - HEAT INDEX
  VSB - VISIBILITY





USA.gov is the U.S. government's official web portal to all federal, state and local government web resources and services.